Location: Thistledown
(37.9936°N, 107.6998°W)
Time: 00:56:06
(UTC+00:00)

Daily predictions for brighter satellites

Satellite Brightness Start Highest point End
(mag) Time Altitude Azimuth Time Altitude Azimuth Time Altitude Azimuth
Cosmos 1844 Rocket 3.4 02:32:13 10° SSW 02:37:42 62° WNW 02:43:15 10° NNE
Cosmos 2278 Rocket 3.4 02:35:44 10° SSE 02:39:47 21° E 02:43:52 10° NE
Sich 1 3.8 02:38:51 10° NNE 02:42:50 34° ENE 02:46:50 10° SE
Cosmos 2084 3.3 02:40:46 10° SSW 02:44:51 74° ESE 02:49:02 10° NE
SJ-6B 3.2 02:42:37 10° SSE 02:46:21 47° ENE 02:50:11 10° N
MetOp-A 4.2 02:42:08 10° SSE 02:47:28 78° ENE 02:52:50 10° N
Okean-O 4.2 02:44:36 10° SSW 02:48:40 36° W 02:52:46 10° NNW
Cosmos 1354 Rocket 4.0 02:45:56 10° S 02:51:05 68° ESE 02:56:19 10° NNE
Cosmos 1151 Rocket 4.0 02:48:10 10° SSE 02:51:50 27° E 02:55:34 10° NNE
Intercosmos 25 Rocket 3.5 02:46:59 10° N 02:51:54 61° E 02:55:18 10° SSE
CSL-04 Rocket 4.2 02:49:28 10° S 02:54:41 61° WSW 03:00:00 10° NNW
ATLAS 5 CENTAUR R/B 2.7 02:49:03 10° NNW 02:54:47 58° NE 03:01:21 10° SE
CZ-4C R/B 3.9 02:50:50 10° NNW 02:57:27 35° NE 03:04:45 10° ESE
Intercosmos 24 3.6 03:00:49 10° S 03:04:35 74° E 03:08:09 10° N
NOSS 3-3 (A) 3.9 03:00:21 10° SSW 03:05:56 88° WNW 03:12:16 10° NNE
NOSS 3-3 (C) 3.9 03:00:27 10° SSW 03:06:03 89° WNW 03:12:22 10° NNE
SL-4 R/B 3.9 03:02:44 10° WNW 03:06:24 26° SW 03:10:14 10° S
Cosmos 1745 Rocket 3.9 03:07:57 10° N 03:14:09 85° E 03:20:16 10° S
USA 186 2.9 03:11:54 10° SSW 03:14:09 30° W 03:16:19 10° NNW
Cosmos 1242 Rocket 2.7 03:12:25 10° SSW 03:15:59 75° W 03:19:31 10° N
Cosmos 1709 Rocket 4.2 03:10:17 10° N 03:16:12 49° E 03:21:27 13° SSE
Cosmos 1833 Rocket 3.8 03:13:17 10° N 03:18:07 28° ENE 03:21:40 16° ESE
GPS 2-04 Rocket1 2.8 03:16:16 10° WSW 03:20:22 62° S 03:23:20 17° E
SPOT 3 Rocket 4.2 03:18:17 16° SE 03:21:51 38° ENE 03:26:34 10° N
Resurs 01 Rocket 2.3 03:19:13 17° SE 03:22:07 38° ENE 03:26:15 10° N
Meteor 1-25 Rocket 4.3 03:17:37 10° N 03:23:30 83° E 03:29:19 10° S
Cosmos 773 Rocket 4.4 03:18:41 10° N 03:23:47 46° ENE 03:27:16 19° SE
X-37B 0.7 03:21:41 10° WNW 03:24:52 71° NNE 03:26:35 25° ESE
MOS 1 4.3 03:24:23 10° SSE 03:30:03 87° WSW 03:35:46 10° NNW
Cosmos 1515 Rocket 4.3 03:30:24 22° SE 03:32:32 34° E 03:36:30 10° NNE
OBJECT-B 2.4 03:29:42 10° SSW 03:32:39 33° W 03:35:38 10° NNW
Delta 2 Rocket 3.8 03:31:51 10° WSW 03:36:58 59° S 03:39:53 22° E
Cosmos 2315 Rocket 4.0 03:35:27 10° S 03:41:50 86° E 03:48:14 10° N
Cosmos 1633 Rocket 3.0 03:37:53 10° N 03:42:18 78° E 03:45:04 23° SSE
Cosmos 1328 Rocket 3.6 03:42:19 10° S 03:46:45 85° W 03:51:11 10° N
Cosmos 1271 Rocket 3.7 03:46:58 29° E 03:47:12 29° E 03:50:40 10° NNE
ISS -3.0 03:44:33 10° SSW 03:46:50 33° S 03:46:50 33° S
Milstar 3 4.3 03:32:43 10° WSW 03:49:31 50° S 03:56:12 21° ESE
USA 308 4.4 03:50:27 10° NNW 03:54:11 28° NNE 03:56:12 19° ENE
Cosmos 1777 Rocket 4.4 03:51:19 10° SSW 03:56:28 66° WNW 04:01:39 10° NNE
Terra 3.7 03:56:00 15° ENE 03:56:52 15° ENE 03:59:35 10° NNE
Cosmos 1470 Rocket 3.6 03:52:31 10° N 03:56:59 63° E 03:58:36 37° SSE
Cosmos 1437 3.8 03:57:12 16° SW 03:59:04 37° WNW 04:01:44 10° N
Tianhe-1 2.0 03:58:14 10° SW 04:00:19 35° SSW 04:00:19 35° SSW
Ariane Rocket 4.0 03:57:01 11° S 04:01:35 43° W 04:06:24 10° NNW
MetOp-B 4.1 03:59:55 31° SSE 04:02:33 72° ENE 04:07:53 10° N
Cosmos 2082 Rocket 3.1 03:58:07 10° N 04:03:09 33° ENE 04:05:04 26° E
ARIANE 5 R/B 3.2 04:08:41 37° E 04:09:16 39° ENE 04:13:18 10° N
Cosmos 1933 Rocket 3.6 04:06:42 10° N 04:10:58 56° E 04:11:39 49° ESE
OAO 3 Rocket 3.4 04:07:43 10° WSW 04:12:03 44° SSE 04:12:03 44° SSE
SPOT 5 3.9 04:12:49 31° E 04:13:53 34° ENE 04:18:35 10° N
Cosmos 1898 Rocket 4.4 04:14:18 30° E 04:14:18 30° E 04:18:33 10° NE
Cosmos 1812 3.0 04:12:34 31° SSW 04:14:14 65° W 04:18:05 10° N
SJ 16-02 1.5 04:13:23 17° SSW 04:16:43 71° WNW 04:21:09 10° NNE
COSMOS 2406 3.1 04:11:13 10° NNW 04:16:55 86° ENE 04:19:01 41° SSE
Cosmos 1943 Rocket 3.5 04:20:39 23° E 04:20:39 23° E 04:23:51 10° NE
Cosmos 990 Rocket 4.3 04:19:25 43° ESE 04:19:44 44° ESE 04:24:42 10° NNE
Cosmos 1666 2.7 04:16:49 10° N 04:20:21 63° ENE 04:20:21 63° ENE
Cosmos 2278 Rocket 3.1 04:17:58 10° SW 04:23:26 49° WNW 04:28:56 10° NNE
Iridium 4 Rocket 3.7 04:22:33 39° SSE 04:24:46 74° E 04:30:41 10° N
Landsat 7 4.3 04:24:44 32° SSW 04:26:42 54° W 04:31:22 10° NNW
Meteor 2-6 Rocket 4.3 04:23:08 20° SSW 04:26:53 70° W 04:32:24 10° N
Cosmos 2369 Rocket 4.3 04:33:00 12° ENE 04:33:00 12° ENE 04:33:37 10° ENE
USA 305 3.1 04:29:16 10° NW 04:33:29 57° NE 04:33:43 56° ENE
Meteor 1-27 Rocket 3.8 04:34:49 51° SSE 04:36:06 64° E 04:41:57 10° NNE
ATLAS 5 CENTAUR R/B 4.1 04:34:23 10° WNW 04:39:18 25° WSW 04:42:54 16° SSW
Cosmos 158 Rocket 3.7 04:35:06 10° NNW 04:40:00 72° ENE 04:40:24 67° ESE
SPOT 1/Viking Rocket 4.0 04:44:07 41° SSW 04:45:38 56° W 04:50:45 10° NNW
CZ-4C R/B 3.3 04:38:57 10° NW 04:46:29 62° WSW 04:49:57 37° S
BREEZE-M DEB (TANK) 4.3 04:45:28 10° WNW 04:48:59 25° WSW 04:48:59 25° WSW
NOSS 3-4 (A) 3.9 04:44:59 10° NNW 04:52:12 81° ENE 04:54:35 49° SE
NOSS 3-4 (C) 3.9 04:45:06 10° NNW 04:52:19 80° ENE 04:54:41 49° SE
USA 306 3.1 04:48:43 10° NW 04:52:29 68° NNW 04:52:29 68° NNW
Resurs 01 Rocket 3.9 04:56:47 14° WSW 04:58:43 17° W 05:01:41 10° NW
Cosmos 2228 Rocket 3.4 04:58:51 58° W 04:59:03 59° W 05:03:28 10° N
Cosmos 2112 Rocket 4.5 04:54:08 10° N 04:59:20 48° ENE 04:59:21 48° ENE
Cosmos 1536 3.7 04:57:23 10° N 05:00:19 46° N 05:00:19 46° N
Cosmos 1833 Rocket 3.6 04:56:54 10° NW 05:02:05 38° WSW 05:03:23 34° SW
Cosmos 2154 Rocket 3.9 04:55:55 10° N 05:02:15 85° E 05:03:18 64° SSE
ATLAS 2AS CENTAUR R/B 2.9 04:58:26 10° NNW 05:05:36 58° NE 05:07:07 48° E
Nadezhda 1 Rocket 4.1 05:06:24 46° SSW 05:08:20 71° W 05:14:35 10° N
Spot 2 Rocket 4.2 05:08:20 42° WSW 05:08:58 44° W 05:13:48 10° NNW
Cosmos 2184 Rocket 4.4 05:03:05 10° NNW 05:09:07 56° W 05:10:49 43° SW
Meteor 1-11 Rocket 3.9 05:03:48 10° NNW 05:09:44 70° W 05:10:37 60° SW
ERS-1 Rocket 3.0 05:09:55 68° WSW 05:09:59 68° WSW 05:15:00 10° NNW
Cosmos 1937 Rocket 3.6 05:13:18 65° NE 05:13:18 65° NE 05:17:44 10° NNE
Cosmos 1869 Rocket 4.4 05:16:07 10° NNW 05:19:35 47° NW 05:19:35 47° NW
USA 307 4.2 05:16:22 10° NW 05:19:05 36° WNW 05:19:05 36° WNW
Cosmos 2297 4.0 05:23:59 53° WSW 05:25:03 64° WNW 05:30:42 10° NNE
Cosmos 1680 Rocket 3.6 05:20:24 10° NNW 05:25:18 75° NW 05:25:18 75° NW
Terra 2.6 05:34:53 48° WNW 05:34:53 48° WNW 05:38:48 10° NNW
Cosmos 2181 Rocket 4.0 05:38:28 69° ENE 05:38:28 69° ENE 05:44:08 10° N
Cosmos 44 3.8 05:33:15 10° NNW 05:37:49 63° NNW 05:37:49 63° NNW
Cosmos 1461 4.3 05:41:06 41° N 05:41:06 41° N 05:44:16 10° NNE
SL-24 R/B - RUBIN 2 4.5 05:37:13 10° NNW 05:41:20 54° NNW 05:41:20 54° NNW
Cosmos 2366 rocket 4.2 05:40:03 10° N 05:45:43 58° ENE 05:45:43 58° ENE
Cosmos 2082 Rocket 3.4 05:42:13 10° NW 05:46:55 32° W 05:46:55 32° W
Meteor 1-18 Rocket 4.5 05:55:05 64° N 05:55:05 64° N 05:59:45 10° N
Cosmos 1607 4.3 05:57:00 56° ENE 05:57:00 56° ENE 06:02:12 10° NE
Cosmos 1818 4.0 05:50:18 10° NNW 05:54:48 59° N 05:54:48 59° N
Cosmos 2341 Rocket 4.2 05:54:48 10° NNW 06:01:04 65° W 06:01:04 65° W
Cosmos 1943 Rocket 3.1 06:02:06 39° W 06:02:49 41° WNW 06:08:07 10° N
Cosmos 2218 Rocket 4.1 06:05:38 10° N 06:11:27 75° NW 06:11:27 75° NW
Cosmos 2369 Rocket 2.7 06:14:45 56° NNW 06:14:45 56° NNW 06:19:28 10° NNE
Cosmos 1656 Rocket 4.5 06:19:42 44° NNE 06:19:42 44° NNE 06:23:25 10° NNE
Lacrosse 5 4.4 06:27:22 12° ENE 06:27:22 12° ENE 06:27:47 10° ENE
Milstar 3 4.5 06:23:35 10° W 06:29:47 29° WSW 06:29:47 29° WSW
Gbstr 26 Del rocket 4.4 06:40:24 10° NW 06:45:55 56° NW 06:45:55 56° NW
ATLAS 2AS CENTAUR R/B 4.2 06:50:22 10° NW 06:54:32 24° W 06:54:32 24° W
Cosmos 1934 Rocket 4.3 07:21:32 10° N 07:26:30 61° N 07:26:30 61° N
ATLAS CENTAUR R/B 4.3 07:42:25 11° NNW 07:42:25 11° NNW 07:42:45 10° NNW
SeaSat 1 3.6 07:37:33 10° NNE 07:40:49 41° N 07:40:49 41° N
COSMOS 2455 4.2 07:40:23 10° N 07:45:49 34° NE 07:47:29 29° E
Cosmos 1727 Rocket 4.2 07:54:04 65° ENE 07:54:04 65° ENE 07:59:51 10° NNE
Lacrosse 4 Rocket 4.2 08:02:37 12° ENE 08:02:37 12° ENE 08:03:18 10° ENE
SL-16 R/B 4.0 08:00:36 24° ESE 08:02:59 31° ENE 08:08:21 10° N
Cosmos 2344 4.4 07:54:01 10° NW 08:04:05 74° WSW 08:08:19 49° S
Lacrosse 5 3.2 08:06:31 34° NNW 08:06:31 34° NNW 08:10:44 10° NNE
ADEOS II 4.3 08:03:47 10° ENE 08:06:33 14° E 08:06:52 14° E
Cosmos 1932 4.5 08:15:14 79° NE 08:15:14 79° NE 08:21:11 10° NNE
CZ-2D R/B 3.1 08:10:01 10° NNE 08:14:26 38° E 08:14:26 38° E
BREEZE-M DEB (TANK) 3.6 08:19:53 48° ENE 08:19:53 48° ENE 08:26:53 10° NE
Resurs 1-4 Rocket 2.9 08:15:57 10° NNE 08:20:20 44° ENE 08:20:20 44° ENE
Cosmos 1697 Rocket 3.6 08:24:06 38° E 08:24:06 38° E 08:28:46 10° NE
USA 215 3.2 08:26:21 48° ESE 08:28:24 81° NE 08:34:57 10° NW
Cosmos 1459 Rocket 4.1 08:25:21 10° N 08:31:33 65° E 08:32:04 62° ESE
BREEZE-M DEB (TANK) 4.3 08:34:24 46° NW 08:35:12 50° NNW 08:46:30 10° ENE
Cosmos 1980 Rocket 3.7 08:35:56 25° ESE 08:36:23 25° ESE 08:40:56 10° NE
USA 281 3.3 08:36:08 53° SE 08:37:43 73° ENE 08:44:16 10° NNW
ISS -0.1 08:40:27 10° N 08:40:35 10° NNE 08:40:43 10° NNE
Cosmos 1626 4.4 08:42:30 21° ENE 08:42:30 21° ENE 08:44:23 10° NE
Cosmos 1975 Rocket 4.1 08:45:41 44° NNE 08:45:41 44° NNE 08:48:40 10° N
Cosmos 1315 Rocket 4.4 08:43:52 10° N 08:46:05 32° N 08:46:05 32° N
Cosmos 2173 Rocket 3.8 08:41:41 10° N 08:47:54 89° E 08:48:20 79° S
UNK 4.3 08:49:44 56° NE 08:49:44 56° NE 08:53:50 10° N
Cosmos 304 Rocket 4.2 08:51:51 56° ENE 08:51:51 56° ENE 08:55:56 10° NNE
Cosmos 2227 Rocket 2.6 08:45:44 10° NNW 08:51:20 60° ENE 08:52:41 47° ESE
Timation 2 Rocket 4.1 08:45:31 10° NNW 08:51:28 67° ENE 08:53:10 46° SE
Cosmos 2061 Rocket 4.4 08:45:27 10° N 08:51:44 59° E 08:53:37 43° SE
Cosmos 2297 Rocket 2.1 08:48:19 10° NNW 08:54:01 84° ENE 08:54:12 82° ESE
In-Cosmos 22 4.2 08:54:53 72° WNW 08:54:53 72° WNW 09:00:10 10° N
Cosmos 2369 3.9 08:56:40 56° SE 08:57:02 58° ESE 09:02:39 10° NNE
ARGOS Delta rocket 4.2 08:54:59 10° NNE 08:59:37 57° E 08:59:37 57° E
SL-19 R/B 4.0 08:59:48 10° NNE 09:05:20 82° ESE 09:05:38 78° SSE
OAO 2 Rocket 4.3 09:08:20 37° ESE 09:08:20 37° ESE 09:11:55 10° E
Cosmos 1371 Rocket 4.3 09:06:34 53° ESE 09:06:57 54° ESE 09:12:02 10° NNE
Cosmos 1656 4.3 09:08:06 41° WNW 09:08:13 41° WNW 09:13:24 10° N
Cosmos 1025 Rocket 3.4 09:08:50 63° NNE 09:08:50 63° NNE 09:12:35 10° N
Cosmos 2251 Rocket 3.8 09:09:21 10° NNW 09:13:42 53° WNW 09:13:42 53° WNW
Cosmos 2100 Rocket 4.3 09:11:10 10° NNW 09:17:12 49° W 09:17:29 49° W
Cosmos 614 Rocket 3.8 09:12:52 10° NNW 09:17:45 73° W 09:17:45 73° W
Cosmos 2123 Rocket 3.9 09:18:35 61° SW 09:19:33 71° W 09:25:46 10° N
Cosmos 1802 Rocket 3.9 09:13:32 10° NNW 09:19:35 64° W 09:20:19 59° SW
Cosmos 1140 Rocket 4.3 09:14:57 10° N 09:20:02 50° ENE 09:23:28 20° SE
IRS-1D 3.9 09:14:54 10° NNE 09:20:12 60° ESE 09:21:23 48° SSE
Cosmos 1340 4.2 09:24:28 28° ESE 09:24:48 29° E 09:28:03 10° NNE
Helios 1B rocket 3.6 09:21:03 10° N 09:24:03 34° NW 09:24:03 34° NW
Cosmos 1908 4.1 09:21:12 10° N 09:23:56 43° NNW 09:23:56 43° NNW
IDEFIX/ARIANE 42P 3.5 09:22:37 10° NNE 09:27:36 42° E 09:29:42 29° SSE
Meteor 1-28 Rocket 4.3 09:28:39 37° ESE 09:29:17 40° ENE 09:32:47 10° N
COSMOS 2455 3.6 09:26:15 10° NW 09:30:33 34° W 09:30:33 34° W
Cosmos 332 Rocket 4.4 09:32:25 41° WNW 09:32:29 41° WNW 09:37:06 10° N
Cosmos 2219 3.5 09:33:11 10° NW 09:38:34 46° WSW 09:38:34 46° WSW
Lacrosse 4 Rocket 2.0 09:38:55 48° WNW 09:39:00 48° WNW 09:43:19 10° NNE
Cosmos 2322 Rocket 4.5 09:35:47 10° SE 09:39:18 17° E 09:42:51 10° ENE
Timation 1 Rocket 4.2 09:34:14 10° NNW 09:40:13 78° WSW 09:43:27 29° SSE
Cosmos 1953 3.7 09:37:47 10° NNW 09:40:06 28° NW 09:40:06 28° NW
Cosmos 1544 Rocket 3.7 09:37:39 10° NNW 09:41:45 57° WNW 09:41:45 57° WNW
Cosmos 1190 Rocket 4.1 09:40:20 10° NNW 09:45:34 73° ENE 09:49:43 16° SSE
Cosmos 2263 Rocket 4.1 09:41:18 10° N 09:46:13 29° ENE 09:51:06 10° ESE
SL-16 R/B 3.0 09:45:41 39° WSW 09:46:22 40° W 09:52:14 10° NNW
Meteor 1-24 Rocket 4.0 09:43:45 30° SSE 09:46:24 62° E 09:51:45 10° NNE
ADEOS II 2.1 09:41:25 10° N 09:46:37 63° WNW 09:47:48 49° SW
ARIANE 5 R/B 3.7 09:42:08 10° NNE 09:46:50 36° E 09:50:04 18° SSE
APEX 3.9 09:44:02 10° NNW 09:48:51 80° WSW 09:53:29 17° SSE
Cosmos 1420 Rocket 4.0 09:47:56 43° S 09:49:38 75° ESE 09:54:49 10° NNE
Cosmos 1447 Rocket 4.5 09:47:44 35° S 09:50:38 87° W 09:57:01 10° N
CZ-2D R/B 3.4 09:50:33 10° NNW 09:54:49 25° WNW 09:55:45 23° W
CZ-4B R/B 4.2 09:52:18 10° NNE 09:57:12 49° E 10:00:27 21° SSE
Cosmos 1536 Rocket 3.7 09:57:19 50° WSW 09:57:47 52° W 10:02:07 10° N
Resurs 1-4 Rocket 3.6 09:56:36 10° NNW 10:00:27 21° WNW 10:01:25 20° W
ADEOS Rocket 3.5 09:59:25 14° S 10:05:51 75° WSW 10:13:40 10° NNW
Meteor 2-5 Rocket 3.7 10:04:04 35° SSW 10:06:30 68° W 10:12:07 10° N
GP-B 3.4 10:03:05 10° N 10:07:22 48° W 10:08:12 42° WSW
CZ-4C R/B 3.4 10:05:32 31° S 10:07:36 83° W 10:11:47 10° NNW
Cosmos 1697 Rocket 3.9 10:05:50 23° W 10:07:38 27° WNW 10:12:23 10° N
Cosmos 407 Rocket 3.7 10:02:31 10° NNW 10:07:42 51° WSW 10:09:48 32° SSW
Aureole 2 Rocket 4.0 10:05:59 10° N 10:08:20 26° ENE 10:10:41 10° SE
Cosmos 676 Rocket 4.2 10:04:13 10° NNW 10:09:29 72° ENE 10:14:45 10° SSE
Cosmos 405 3.5 10:06:07 10° N 10:09:34 57° E 10:11:42 21° SSE
SL-14 R/B 4.1 10:10:10 33° W 10:10:14 33° WNW 10:13:50 10° NNW
USA 215 4.4 10:13:35 22° W 10:13:35 22° W 10:16:55 10° WNW
Cosmos 292 Rocket 3.9 10:10:34 28° S 10:13:05 71° ESE 10:17:56 10° NNE
Atlas Centaur 2 3.8 10:11:02 23° SSW 10:13:45 28° SSE 10:19:19 10° ESE
CBERS-1 4.3 10:09:46 10° N 10:14:43 51° WNW 10:16:44 32° SW
Cosmos 1626 4.1 10:17:00 16° WNW 10:17:00 16° WNW 10:18:58 10° NNW
BREEZE-M DEB (TANK) 2.8 10:17:07 36° NNW 10:17:07 36° NNW 10:19:31 10° NE
ISS -1.8 10:15:11 10° NNW 10:18:15 31° NNE 10:21:18 10° E
Cosmos 1980 Rocket 2.8 10:17:42 28° WSW 10:20:06 41° WNW 10:25:27 10° N
Cosmos 2233 Rocket 4.3 10:15:40 10° NNW 10:21:28 44° W 10:24:41 25° SSW
CENTAUR R/B 3.4 10:21:27 13° S 10:26:02 39° ESE 10:32:00 10° NE
Spot 1 4.4 10:25:08 22° S 10:28:01 54° W 10:32:49 10° NNW
Cosmos 1452 Rocket 3.5 10:30:10 22° SSW 10:33:41 82° WNW 10:39:00 10° NNE
Cosmos 1300 3.5 10:30:32 10° NNW 10:33:57 31° W 10:34:42 29° WSW
Cosmos 2227 Rocket 3.7 10:31:21 10° WNW 10:34:25 17° W 10:34:25 17° W
CZ-2D R/B 3.7 10:30:29 10° NNE 10:34:55 81° E 10:38:33 15° S
ATLAS 2A CENTAUR R/B 3.6 10:32:55 11° S 10:35:17 16° SE 10:40:03 10° ESE
Cosmos 220 Rocket 4.3 10:33:33 27° SW 10:35:41 51° WNW 10:40:00 10° N
Cosmos 1954 Rocket 4.0 10:30:53 10° NNW 10:36:06 63° WSW 10:41:20 10° S
Cosmos 2297 Rocket 4.2 10:35:37 10° W 10:35:57 10° W 10:35:57 10° W
Cosmos 1346 Rocket 2.7 10:39:36 16° S 10:42:38 88° E 10:46:34 10° N
Cosmos 389 Rocket 4.0 10:40:04 10° N 10:43:20 36° ENE 10:46:31 10° SSE
CZ-2C R/B 3.0 10:41:44 10° NNE 10:46:51 62° E 10:51:58 10° S
Spot 4 Rocket 4.0 10:42:46 10° NNE 10:47:56 87° ESE 10:53:04 10° SSW
Cosmos 1455 2.7 10:46:06 10° N 10:49:55 62° E 10:53:44 10° SSE
ALOS 3.8 10:47:03 10° NNE 10:51:19 35° E 10:55:35 10° SSE
OAO 2 Rocket 3.5 10:47:16 16° W 10:51:26 64° S 10:56:42 10° E
Cosmos 1110 Rocket 4.2 10:48:52 10° S 10:54:01 72° ESE 10:59:11 10° NNE
SL-16 R/B 2.2 10:50:34 14° SSW 10:55:31 78° WNW 11:01:13 10° NNE
Cosmos 1703 3.8 10:53:32 10° S 10:57:19 57° E 11:01:08 10° NNE
MSX 4.4 10:52:15 10° N 10:57:38 42° WNW 11:02:20 13° SW
Cosmos 1850 Rocket 4.2 10:54:53 10° NNW 11:00:15 78° ENE 11:05:34 10° SSE
SL-08 R/B 3.5 10:56:29 10° S 11:01:03 50° W 11:05:35 10° NNW
Cosmos 1892 Rocket 3.8 10:58:35 12° SSW 11:02:24 51° W 11:06:38 10° N
IDEFIX/ARIANE 42P 4.0 11:02:51 10° NNW 11:06:53 23° WNW 11:10:31 12° WSW
BREEZE-M DEB (TANK) 3.8 11:07:09 10° WNW 11:08:58 15° NNW 11:10:27 10° NNE
Meteor 2-1 Rocket 4.4 11:04:31 10° N 11:10:13 78° E 11:15:45 10° SSE
Cosmos 1741 Rocket 4.0 11:05:37 10° NNW 11:10:51 88° WSW 11:16:04 10° SSE
CZ-2C R/B 2.9 11:13:13 10° N 11:17:12 63° WNW 11:21:11 10° SSW
Okean 1-7 Rocket 3.7 11:13:12 10° SSW 11:17:42 63° W 11:22:15 10° N
USA 32 4.1 11:12:45 10° NNW 11:17:56 59° W 11:23:04 10° SSW
NOSS 3-2 (C) 3.3 11:12:39 10° SSW 11:18:06 84° ESE 11:24:17 10° NE
Meteor 2-10 Rocket 4.4 11:16:43 10° NNW 11:21:43 33° W 11:26:32 10° SSW
Cosmos 2322 Rocket 2.4 11:17:12 10° SW 11:22:46 59° WNW 11:28:24 10° NNE
Cosmos 2058 Rocket 3.3 11:19:32 10° NNW 11:23:57 55° W 11:28:21 10° S
ARIANE 5 R/B 3.8 11:21:37 10° NNW 11:25:42 25° WNW 11:29:44 10° WSW
Cosmos 1726 Rocket 4.5 11:22:34 10° NNW 11:26:23 29° W 11:30:12 10° SSW
Cosmos 2263 Rocket 2.7 11:25:00 10° NW 11:30:09 37° WSW 11:35:18 10° S
SL-24 R/B 3.8 11:26:30 10° S 11:30:13 79° WSW 11:34:19 10° NNW
Cosmos 1844 Rocket 4.1 11:27:07 10° N 11:32:31 45° ENE 11:37:55 10° SE
